Location: B
(0.0000°N, 0.0000°E)
Time: 11:16:10
(UTC+01:00)

Amateur Radio Satellites - All Passes

Search period start: 04 December 2016 10:46
Search period end: 05 December 2016 10:46
Location: B, 0.0000°N, 0.0000°E

Satellite Date Start Highest point End Downlink Frequencies (MHz)
Time Altitude Azimuth
CUSAT 1 04 Dec 11:18:03 11:18:35 10° 268° (W) 11:19:05 437.405
NANOSAT C BR1 04 Dec 11:23:21 11:24:20 11° 78° (ENE) 11:25:19 145.865
PHONESAT 2.4 04 Dec 11:24:05 11:25:43 15° 222° (SW) 11:27:19 2401.200-2431.200
QB50P2 04 Dec 11:25:26 11:27:51 15° 78° (ENE) 11:30:15 145.880/145.840
HUMSAT D 04 Dec 11:25:43 11:29:04 25° 281° (W) 11:32:27 437.325/437.525
POLYITAN 1 04 Dec 11:26:13 11:28:27 14° 78° (ENE) 11:30:40 437.675
DANDE 04 Dec 11:34:34 11:41:03 37° 271° (W) 11:46:12 436.750
SRMSAT 04 Dec 11:37:36 11:43:35 74° 338° (NNW) 11:49:32 437.500
QB50P1 04 Dec 11:39:00 11:42:15 21° 78° (ENE) 11:45:30 145.935-145.965
DUCHIFAT 1 04 Dec 11:44:32 11:47:44 21° 78° (ENE) 11:50:56 145.980
PCSat 04 Dec 11:48:05 11:53:25 63° 289° (WNW) 11:58:45 145.827
UNISAT 6 04 Dec 11:49:48 11:52:40 16° 258° (WSW) 11:55:32 437.425
JUGNU 04 Dec 11:54:54 11:59:03 19° 345° (NNW) 12:03:11 437.505
POPSAT HIP 1 04 Dec 11:59:28 12:03:30 42° 78° (ENE) 12:07:32 437.405
ESTCUBE 1 04 Dec 12:00:35 12:05:04 70° 102° (ESE) 12:09:36 437.505/2401.250
JAS-2 04 Dec 12:05:36 12:13:13 88° 77° (ENE) 12:20:01 435.910
SPROUT 04 Dec 12:10:07 12:12:41 16° 102° (ESE) 12:15:13 437.525
Cosmos 2499 04 Dec 12:11:53 12:16:27 16° 85° (E) 12:20:49 435.465 / 435.565
AISAT 04 Dec 12:17:18 12:21:27 39° 102° (ESE) 12:25:36 437.250
50 SAT 04 Dec 12:18:00 12:21:02 26° 102° (ESE) 12:24:06 437.505
CUBEBUG 1 04 Dec 12:49:26 12:53:37 43° 282° (WNW) 12:57:50 437.445
BUGSAT 1 04 Dec 12:49:57 12:54:01 54° 77° (ENE) 12:58:05 437.445
GONETS M04 04 Dec 12:53:14 13:01:14 41° 87° (E) 13:09:16
VELOX 1 04 Dec 12:54:05 12:58:29 65° 282° (WNW) 13:02:54 145.980
NANOSAT C BR1 04 Dec 12:56:06 12:59:47 29° 258° (WSW) 13:03:27 145.865
QB50P2 04 Dec 13:00:05 13:03:22 22° 258° (WSW) 13:06:39 145.880/145.840
POLYITAN 1 04 Dec 13:00:34 13:03:58 23° 258° (WSW) 13:07:21 437.675
DX 1 04 Dec 13:14:59 13:19:21 73° 282° (WNW) 13:23:42 434.975-435.025
QB50P1 04 Dec 13:15:19 13:17:45 15° 258° (WSW) 13:20:10 145.935-145.965
DUCHIFAT 1 04 Dec 13:20:41 13:23:08 15° 258° (WSW) 13:25:36 145.980
UKube-1 04 Dec 13:26:37 13:30:55 73° 282° (WNW) 13:35:14 .
SRMSAT 04 Dec 13:27:53 13:32:55 28° 342° (NNW) 13:37:55 437.500
AO-85 04 Dec 13:30:12 13:33:42 32° 69° (ENE) 13:37:20 145.980
Oscar 19 04 Dec 13:32:40 13:37:10 31° 77° (ENE) 13:41:38 437.125/150
TISAT 1 04 Dec 13:38:59 13:42:35 28° 102° (ESE) 13:46:10 437.305
SPROUT 04 Dec 13:45:10 13:48:19 20° 282° (WNW) 13:51:29 437.525
JUGNU 04 Dec 13:47:41 13:48:58 11° 354° (N) 13:50:16 437.505
Cosmos 2499 04 Dec 14:01:40 14:09:21 51° 268° (W) 14:16:32 435.465 / 435.565
ITUPSAT 1 04 Dec 14:35:12 14:38:45 21° 103° (ESE) 14:42:19 437.325
Gurwin Techsat 1B 04 Dec 14:49:39 14:54:57 71° 257° (WSW) 15:00:13 435.225
GONETS M04 04 Dec 14:50:54 14:57:39 25° 267° (W) 15:04:30
ISS 04 Dec 14:54:16 14:57:21 39° 125° (SE) 15:00:25 145.825
AO-7 04 Dec 14:58:08 15:03:13 18° 73° (ENE) 15:08:15 29.400- 29.500
AUBIESAT-1 04 Dec 15:06:12 15:10:30 70° 105° (ESE) 15:14:31 437.475
Oscar 19 04 Dec 15:13:19 15:16:12 15° 257° (WSW) 15:19:04 437.125/150
M-CUBED/EXP-1 PRIME 04 Dec 15:16:33 15:20:54 61° 287° (WNW) 15:25:00 437.505
TISAT 1 04 Dec 15:17:10 15:17:56 10° 282° (WNW) 15:18:43 437.305
SRMSAT 04 Dec 15:19:57 15:22:42 13° 349° (N) 15:25:28 437.500
MOZHAYETS 4 04 Dec 15:34:21 15:37:42 20° 102° (ESE) 15:41:04
ITAMSAT 1 04 Dec 15:34:42 15:39:52 62° 77° (ENE) 15:45:01 435.822/435.867
JUGNU 04 Dec 15:38:17 15:39:12 10° 5° (N) 15:40:08 437.505
SWISSCUBE 04 Dec 15:41:24 15:45:50 41° 282° (WNW) 15:50:18 437.505
BEESAT 04 Dec 15:45:41 15:50:07 41° 283° (WNW) 15:54:36 436.000
BEESAT 3 04 Dec 15:58:42 15:59:58 11° 68° (ENE) 16:01:16 437.485
ITUPSAT 1 04 Dec 16:12:56 16:16:19 20° 282° (WNW) 16:19:43 437.325
KKS-1 04 Dec 16:19:33 16:23:21 28° 102° (ESE) 16:27:08 437.445
O/OREOS (USA 219) 04 Dec 16:28:18 16:32:52 64° 284° (WNW) 16:37:24 437.305
STARS 04 Dec 16:32:40 16:35:12 15° 103° (ESE) 16:37:42 437.465
AO-7 04 Dec 16:47:29 16:55:33 59° 254° (WSW) 17:03:39 29.400- 29.500
CUBESAT XI-V 04 Dec 17:07:36 17:11:44 31° 102° (ESE) 17:15:54 437.345
MOZHAYETS 4 04 Dec 17:11:28 17:14:35 18° 282° (WNW) 17:17:44
JUGNU 04 Dec 17:25:14 17:29:09 18° 15° (NNE) 17:33:03 437.505
BEESAT 3 04 Dec 17:34:10 17:37:21 23° 248° (WSW) 17:40:32 437.485
HORYU 2 04 Dec 17:46:06 17:50:28 50° 77° (ENE) 17:54:47 437.375
GOMX 1 04 Dec 17:50:49 17:53:58 20° 77° (ENE) 17:57:11 467.674
KKS-1 04 Dec 17:57:43 17:59:38 13° 283° (WNW) 18:01:33 437.445
BEESAT 2 04 Dec 17:58:33 18:02:05 30° 248° (WSW) 18:05:36 435.950
BRITE-PL 04 Dec 18:03:53 18:08:01 68° 259° (W) 18:12:08 437.365/2234.400
RS-15 04 Dec 18:04:32 18:14:27 30° 67° (ENE) 18:23:55 29.354- 29.394
LilacSat-2 04 Dec 18:06:41 18:09:06 16° 79° (E) 18:11:30 437.200
STARS 04 Dec 18:07:50 18:11:16 23° 282° (WNW) 18:14:42 437.465
DOVE 4 04 Dec 18:12:32 18:14:32 13° 77° (ENE) 18:16:34 437.250
NOAA 18 04 Dec 18:26:56 18:30:47 20° 76° (ENE) 18:34:39 137.9125
CUTE-I 04 Dec 18:33:28 18:38:31 42° 77° (ENE) 18:43:33 437.470
CUBESAT XI-V 04 Dec 18:46:53 18:48:51 12° 282° (WNW) 18:50:48 437.345
Cosmos 2491 04 Dec 18:53:29 19:00:57 32° 87° (E) 19:08:26 435.465 / 435.565
YUBILEINY 04 Dec 18:54:32 19:01:39 28° 93° (E) 19:08:42 435.215
Cubesat XI-IV 04 Dec 18:58:24 19:03:48 83° 78° (ENE) 19:09:10 437.490
SRMSAT 04 Dec 19:00:38 19:03:18 13° 10° (N) 19:05:58 437.500
NOAA 15 04 Dec 19:02:38 19:07:54 75° 257° (WSW) 19:13:07 137.62
JUGNU 04 Dec 19:13:00 19:18:32 42° 20° (NNE) 19:24:02 437.505
HO-68 04 Dec 19:20:25 19:25:14 19° 75° (ENE) 19:30:01 435.675
Cosmos 2504 04 Dec 19:23:09 19:27:23 15° 92° (E) 19:31:43 435.465 / 435.565
GOMX 1 04 Dec 19:29:31 19:31:50 15° 259° (W) 19:34:11 467.674
LilacSat-2 04 Dec 19:40:44 19:43:07 16° 258° (WSW) 19:45:31 437.200
CINEMA 3 04 Dec 19:42:46 19:47:06 41° 78° (ENE) 19:51:37 145.822/145.860
DOVE 4 04 Dec 19:48:17 19:51:55 26° 259° (W) 19:55:43 437.250
AIST 1 04 Dec 19:51:37 19:54:51 21° 94° (E) 19:58:04
STRAND 1 04 Dec 19:56:31 20:01:35 77° 103° (ESE) 20:06:41 437.568
SO-50 04 Dec 19:58:57 20:03:47 86° 294° (WNW) 20:08:34 436.795
NOAA 18 04 Dec 20:06:28 20:11:09 29° 257° (WSW) 20:15:51 137.9125
AIST 2 04 Dec 20:08:00 20:12:09 66° 248° (WSW) 20:16:17 435.215
CUBEBUG 2 04 Dec 20:14:47 20:18:08 20° 78° (ENE) 20:21:31 437.445
RS-15 04 Dec 20:15:14 20:26:30 50° 250° (WSW) 20:37:19 29.354- 29.394
CUTE-I 04 Dec 20:16:06 20:18:16 12° 257° (WSW) 20:20:25 437.470
CUTE 1.7 + AOD 2 04 Dec 20:23:39 20:27:56 81° 77° (ENE) 20:32:09 437.475
CANX-2 04 Dec 20:41:27 20:45:30 43° 258° (WSW) 20:49:31 2200.000
SRMSAT 04 Dec 20:48:11 20:53:06 27° 18° (NNE) 20:58:04 437.500
Cosmos 2491 04 Dec 20:49:59 20:57:23 32° 267° (W) 21:04:53 435.465 / 435.565
YUBILEINY 04 Dec 20:50:20 20:58:01 36° 273° (W) 21:05:45 435.215
Oscar 11 04 Dec 20:53:36 20:56:10 15° 78° (ENE) 20:58:43 145.826/435.025
PRISM 04 Dec 20:53:38 20:55:03 12° 102° (ESE) 20:56:29 437.425
AAUSAT CUBESAT 2 04 Dec 20:56:36 21:00:40 61° 79° (E) 21:04:43 437.432
UWE-3 04 Dec 21:00:13 21:04:40 46° 78° (ENE) 21:09:09 435.000/436.395/437.385
JUGNU 04 Dec 21:01:45 21:07:35 70° 201° (SSW) 21:13:25 437.505
HO-68 04 Dec 21:05:53 21:12:36 45° 256° (WSW) 21:19:20 435.675
SEEDS 04 Dec 21:11:08 21:14:54 32° 258° (WSW) 21:18:38 437.485
Cosmos 2504 04 Dec 21:12:46 21:20:13 55° 274° (W) 21:28:14 435.465 / 435.565
COMPASS 1 04 Dec 21:25:10 21:28:56 33° 258° (WSW) 21:32:40 437.405
AIST 1 04 Dec 21:30:07 21:32:09 13° 274° (W) 21:34:11
ZACube-1 04 Dec 21:45:30 21:50:04 76° 259° (W) 21:54:38 437.345
CUBEBUG 2 04 Dec 21:50:58 21:54:28 21° 259° (WSW) 21:58:00 437.445
FUNcube-1 04 Dec 21:54:20 21:58:52 63° 259° (WSW) 22:03:23 145.935
HUMSAT D 04 Dec 21:56:16 21:58:33 14° 79° (ENE) 22:00:48 437.325/437.525
CUSAT 1 04 Dec 22:05:47 22:10:52 83° 264° (W) 22:17:33 437.405
DELFI C3 04 Dec 22:11:31 22:15:23 56° 79° (E) 22:19:13 145.870
UNISAT 6 04 Dec 22:25:36 22:29:29 34° 102° (ESE) 22:33:20 437.425
PRISM 04 Dec 22:26:36 22:30:04 26° 282° (WNW) 22:33:34 437.425
Oscar 11 04 Dec 22:28:42 22:32:02 21° 258° (WSW) 22:35:20 145.826/435.025
DANDE 04 Dec 22:34:17 22:37:59 41° 89° (E) 22:42:51 436.750
SRMSAT 04 Dec 22:36:32 22:42:26 72° 21° (NNE) 22:48:23 437.500
PHONESAT 2.4 04 Dec 22:41:38 22:44:09 35° 317° (NW) 22:46:38 2401.200-2431.200
PCSat 04 Dec 22:41:58 22:46:26 26° 71° (ENE) 22:50:54 145.827
JUGNU 04 Dec 22:51:54 22:56:45 26° 198° (SSW) 23:01:35 437.505
TIGRISAT 04 Dec 22:55:46 23:00:03 90° 171° (S) 23:04:17 435.000
ANTELSAT 04 Dec 22:56:45 23:01:01 81° 283° (WNW) 23:05:17 437.575/2403.000
CUBEBUG 1 04 Dec 23:27:01 23:27:38 10° 78° (ENE) 23:28:16 437.445
NANOSAT C BR1 04 Dec 23:28:08 23:29:59 13° 102° (ESE) 23:31:51 145.865
HUMSAT D 04 Dec 23:30:30 23:33:53 23° 258° (WSW) 23:37:14 437.325/437.525
QB50P2 04 Dec 23:31:15 23:34:04 18° 102° (ESE) 23:36:55 145.880/145.840
POLYITAN 1 04 Dec 23:32:00 23:34:40 17° 102° (ESE) 23:37:20 437.675
JAS-2 04 Dec 23:38:33 23:43:45 42° 104° (ESE) 23:49:33 435.910
QB50P1 04 Dec 23:44:48 23:48:17 25° 102° (ESE) 23:51:45 145.935-145.965
DUCHIFAT 1 04 Dec 23:49:43 23:53:06 24° 102° (ESE) 23:56:29 145.980
POPSAT HIP 1 05 Dec 00:05:32 00:09:37 51° 102° (ESE) 00:13:41 437.405
50 SAT 05 Dec 00:05:59 00:08:12 16° 79° (ENE) 00:10:26 437.505
ESTCUBE 1 05 Dec 00:14:45 00:19:14 73° 258° (WSW) 00:23:40 437.505/2401.250
SPROUT 05 Dec 00:16:45 00:19:53 20° 78° (ENE) 00:23:00 437.525
Cosmos 2499 05 Dec 00:19:03 00:24:56 23° 92° (E) 00:31:05 435.465 / 435.565
PCSat 05 Dec 00:25:39 00:29:33 20° 250° (WSW) 00:33:27 145.827
SRMSAT 05 Dec 00:26:06 00:31:41 42° 200° (SSW) 00:37:18 437.500
AISAT 05 Dec 00:28:43 00:33:02 57° 78° (ENE) 00:37:20 437.250
JUGNU 05 Dec 00:43:51 00:46:24 13° 190° (S) 00:48:58 437.505
BUGSAT 1 05 Dec 00:53:05 00:57:08 61° 102° (ESE) 01:01:08 437.445
CUBEBUG 1 05 Dec 00:59:50 01:03:38 31° 258° (WSW) 01:07:28 437.445
NANOSAT C BR1 05 Dec 01:02:05 01:05:27 24° 282° (WNW) 01:08:48 145.865
VELOX 1 05 Dec 01:05:53 01:10:02 43° 258° (WSW) 01:14:11 145.980
QB50P2 05 Dec 01:06:49 01:09:36 17° 282° (WNW) 01:12:24 145.880/145.840
POLYITAN 1 05 Dec 01:07:17 01:10:11 18° 282° (WNW) 01:13:06 437.675
QB50P1 05 Dec 01:22:14 01:23:47 12° 282° (WNW) 01:25:20 145.935-145.965
DX 1 05 Dec 01:24:45 01:28:57 52° 258° (WSW) 01:33:09 434.975-435.025
JAS-2 05 Dec 01:26:12 01:28:46 13° 280° (W) 01:31:26 435.910
GONETS M04 05 Dec 01:26:15 01:35:04 79° 93° (E) 01:43:46
DUCHIFAT 1 05 Dec 01:26:49 01:28:31 12° 282° (WNW) 01:30:12 145.980
UKube-1 05 Dec 01:35:12 01:39:24 54° 258° (WSW) 01:43:35 .
50 SAT 05 Dec 01:39:50 01:41:14 12° 258° (WSW) 01:42:37 437.505
AO-85 05 Dec 01:41:37 01:46:57 75° 112° (ESE) 01:52:04 145.980
TISAT 1 05 Dec 01:43:54 01:47:44 33° 78° (ENE) 01:51:32 437.305
Gurwin Techsat 1B 05 Dec 01:49:43 01:53:42 22° 103° (ESE) 01:57:40 435.225
SPROUT 05 Dec 01:52:52 01:55:32 16° 258° (WSW) 01:58:13 437.525
Oscar 19 05 Dec 02:05:33 02:10:45 83° 101° (ESE) 02:15:59 437.125/150
Cosmos 2499 05 Dec 02:10:16 02:17:35 42° 274° (W) 02:25:25 435.465 / 435.565
SRMSAT 05 Dec 02:17:17 02:21:16 18° 194° (SSW) 02:25:16 437.500
SWISSCUBE 05 Dec 02:26:54 02:30:20 20° 77° (ENE) 02:33:44 437.505
ISS 05 Dec 02:28:41 02:31:23 24° 54° (NE) 02:34:06 145.825
BEESAT 05 Dec 02:31:10 02:34:33 19° 78° (ENE) 02:37:54 436.000
ITUPSAT 1 05 Dec 02:56:34 03:01:05 41° 78° (ENE) 03:05:35 437.325
AUBIESAT-1 05 Dec 03:04:55 03:08:29 59° 75° (ENE) 03:12:19 437.475
M-CUBED/EXP-1 PRIME 05 Dec 03:15:53 03:19:23 63° 255° (WSW) 03:23:09 437.505
AO-7 05 Dec 03:22:26 03:29:30 31° 107° (ESE) 03:36:31 29.400- 29.500
Gurwin Techsat 1B 05 Dec 03:29:08 03:33:21 24° 283° (WNW) 03:37:34 435.225
GONETS M04 05 Dec 03:30:18 03:31:27 10° 273° (W) 03:32:36
MOZHAYETS 4 05 Dec 03:50:17 03:54:29 34° 78° (ENE) 03:58:39
BEESAT 3 05 Dec 03:50:53 03:51:57 11° 112° (ESE) 03:53:02 437.485
SWISSCUBE 05 Dec 04:04:13 04:07:50 21° 257° (WSW) 04:11:27 437.505
ISS 05 Dec 04:07:26 04:07:42 10° 234° (SW) 04:07:58 145.825
BEESAT 05 Dec 04:08:24 04:12:03 22° 257° (WSW) 04:15:41 436.000
ITAMSAT 1 05 Dec 04:09:48 04:14:46 49° 283° (WNW) 04:19:45 435.822/435.867
SRMSAT 05 Dec 04:10:11 04:11:25 11° 185° (S) 04:12:39 437.500
JUGNU 05 Dec 04:23:49 04:26:41 14° 169° (S) 04:29:34 437.505
KKS-1 05 Dec 04:31:35 04:35:47 41° 78° (ENE) 04:39:58 437.445
O/OREOS (USA 219) 05 Dec 04:39:41 04:43:45 35° 255° (WSW) 04:47:51 437.305
STARS 05 Dec 04:42:38 04:45:59 21° 78° (ENE) 04:49:19 437.465
BRITE-PL 05 Dec 04:52:49 04:56:23 17° 102° (ESE) 04:59:56 437.365/2234.400
AO-7 05 Dec 05:14:28 05:21:53 36° 286° (WNW) 05:29:20 29.400- 29.500
CUBESAT XI-V 05 Dec 05:25:36 05:30:06 55° 79° (ENE) 05:34:35 437.345
BEESAT 3 05 Dec 05:26:15 05:29:19 23° 292° (WNW) 05:32:24 437.485
MOZHAYETS 4 05 Dec 05:30:09 05:31:21 11° 258° (WSW) 05:32:31
RS-15 05 Dec 05:47:11 05:55:22 23° 111° (ESE) 06:03:43 29.354- 29.394
BEESAT 2 05 Dec 05:51:55 05:55:16 28° 292° (WNW) 05:58:39 435.950
HORYU 2 05 Dec 05:58:22 06:02:45 76° 102° (ESE) 06:07:10 437.375
SRMSAT 05 Dec 06:00:13 06:01:50 11° 174° (S) 06:03:26 437.500
Cubesat XI-IV 05 Dec 06:00:24 06:03:29 16° 103° (ESE) 06:06:33 437.490
LilacSat-2 05 Dec 06:01:48 06:03:25 12° 102° (ESE) 06:05:03 437.200
NOAA 15 05 Dec 06:01:54 06:05:38 20° 103° (ESE) 06:09:22 137.62
JUGNU 05 Dec 06:11:15 06:16:20 28° 162° (SSE) 06:21:25 437.505
GOMX 1 05 Dec 06:12:43 06:18:00 53° 101° (ESE) 06:23:06 467.674
STARS 05 Dec 06:19:19 06:22:03 16° 258° (WSW) 06:24:48 437.465
BRITE-PL 05 Dec 06:29:23 06:34:32 36° 282° (WNW) 06:39:41 437.365/2234.400
DOVE 4 05 Dec 06:31:24 06:35:42 28° 101° (E) 06:39:49 437.250
STRAND 1 05 Dec 06:53:46 06:55:22 11° 77° (ENE) 06:56:57 437.568
NOAA 18 05 Dec 07:09:46 07:15:11 64° 103° (ESE) 07:20:37 137.9125
CUTE-I 05 Dec 07:12:32 07:17:46 66° 283° (WNW) 07:23:03 437.470
HO-68 05 Dec 07:12:43 07:16:47 16° 105° (ESE) 07:20:50 435.675
Cosmos 2491 05 Dec 07:26:07 07:34:52 64° 93° (E) 07:43:30 435.465 / 435.565
YUBILEINY 05 Dec 07:26:30 07:35:05 57° 87° (E) 07:43:41 435.215
Cosmos 2504 05 Dec 07:33:48 07:39:56 23° 85° (E) 07:45:45 435.465 / 435.565
LilacSat-2 05 Dec 07:34:49 07:37:27 18° 281° (W) 07:40:06 437.200
Cubesat XI-IV 05 Dec 07:38:33 07:43:16 33° 283° (WNW) 07:47:59 437.490
NOAA 15 05 Dec 07:40:45 07:45:07 27° 283° (WNW) 07:49:31 137.62
SEEDS 05 Dec 07:43:20 07:44:33 11° 102° (ESE) 07:45:47 437.485
SRMSAT 05 Dec 07:47:40 07:51:56 20° 165° (SSE) 07:56:11 437.500
RS-15 05 Dec 07:56:20 08:07:15 60° 291° (WNW) 08:18:47 29.354- 29.394
AIST 1 05 Dec 07:57:33 08:01:23 30° 86° (E) 08:05:15
CINEMA 3 05 Dec 07:59:26 08:03:56 69° 101° (ESE) 08:08:14 145.822/145.860
JUGNU 05 Dec 07:59:32 08:05:31 75° 158° (SSE) 08:11:31 437.505
AIST 2 05 Dec 08:06:25 08:10:20 51° 291° (WNW) 08:14:17 435.215
DOVE 4 05 Dec 08:09:58 08:13:03 16° 283° (WNW) 08:16:03 437.250
SO-50 05 Dec 08:12:08 08:16:20 44° 248° (WSW) 08:20:34 436.795
CUBEBUG 2 05 Dec 08:27:10 08:30:35 25° 101° (ESE) 08:33:59 437.445
STRAND 1 05 Dec 08:29:25 08:34:16 42° 258° (WSW) 08:39:05 437.568
CUTE 1.7 + AOD 2 05 Dec 08:29:51 08:34:04 81° 281° (W) 08:38:20 437.475
CANX-2 05 Dec 08:47:56 08:51:47 35° 281° (W) 08:55:40 2200.000
PRISM 05 Dec 08:56:11 08:57:46 12° 78° (ENE) 08:59:20 437.425
HO-68 05 Dec 08:57:11 09:04:08 54° 284° (WNW) 09:11:07 435.675
AAUSAT CUBESAT 2 05 Dec 08:59:55 09:04:03 69° 101° (ESE) 09:08:12 437.432
Oscar 11 05 Dec 09:01:34 09:04:44 20° 102° (ESE) 09:07:54 145.826/435.025
CUSAT 1 05 Dec 09:07:24 09:10:42 17° 102° (ESE) 09:13:30 437.405
UWE-3 05 Dec 09:11:42 09:15:49 64° 102° (ESE) 09:19:54 435.000/436.395/437.385
SEEDS 05 Dec 09:16:24 09:19:57 27° 281° (WNW) 09:23:33 437.485
Cosmos 2504 05 Dec 09:25:25 09:33:01 40° 268° (W) 09:40:10 435.465 / 435.565
YUBILEINY 05 Dec 09:26:12 09:31:29 17° 267° (W) 09:36:48 435.215
Cosmos 2491 05 Dec 09:26:55 09:31:16 15° 273° (W) 09:35:38 435.465 / 435.565
COMPASS 1 05 Dec 09:29:15 09:32:53 29° 281° (WNW) 09:36:33 437.405
SRMSAT 05 Dec 09:35:43 09:41:28 46° 160° (SSE) 09:47:12 437.500
DANDE 05 Dec 09:39:17 09:42:54 15° 102° (ESE) 09:46:07 436.750
JUGNU 05 Dec 09:49:02 09:54:37 40° 340° (NNW) 10:00:12 437.505
ZACube-1 05 Dec 09:55:47 09:59:48 51° 281° (WNW) 10:03:50 437.345
PHONESAT 2.4 05 Dec 09:59:47 10:02:24 72° 42° (NE) 10:05:04 2401.200-2431.200
HUMSAT D 05 Dec 10:00:37 10:03:02 15° 102° (ESE) 10:05:28 437.325/437.525
FUNcube-1 05 Dec 10:04:20 10:08:14 42° 281° (WNW) 10:12:09 145.935
CUBEBUG 2 05 Dec 10:05:25 10:06:56 12° 282° (WNW) 10:08:27 437.445
DELFI C3 05 Dec 10:09:52 10:13:45 53° 102° (ESE) 10:17:41 145.870
PRISM 05 Dec 10:29:34 10:32:47 23° 258° (WSW) 10:36:01 437.425
Oscar 11 05 Dec 10:37:55 10:40:35 16° 282° (WNW) 10:43:16 145.826/435.025
